DW9497 Chester UK current weather conditions

sailwx.info

Wind from 145

Air temperature 5.6° C
Dewpoint 4.7° C

Last reported at 2019-Sep-18 02:01 UTC.
Time now 2019-Sep-18 02:51 UTC

Location: N 53°12' W 002°52'.
View on Google Maps.

See reports from other nearby stations

  
Tides and Currents Weather Stations Pressure Air Temp Water Temp Dewpoint Dewpoint Depression Visibility Wind Speed Wind Dir Waves Ship Positions
date/time (UTC)wind fromknots sea level pressurealtimeterstation pressurevisibilityair tempwater tempwave heightnotes
2019-Sep-18 02:30 145 5.6
2019-Sep-18 02:15 146 5.6
2019-Sep-18 02:01 145 5.6
2019-Sep-18 01:46 145 6.1
2019-Sep-18 01:31 145 6.1
2019-Sep-18 01:15 145 6.7
2019-Sep-18 01:00 146 6.7
2019-Sep-18 00:45 140 6.7
2019-Sep-18 00:30 307 6.1
2019-Sep-18 00:16 310 6.1
2019-Sep-18 00:00 311 6.7
2019-Sep-17 23:45 311 6.7
2019-Sep-17 23:30 311 6.7
2019-Sep-17 23:15 311 6.7
2019-Sep-17 23:00 311 6.7
2019-Sep-17 22:45 311 7.2
2019-Sep-17 22:30 311 7.8
2019-Sep-17 22:15 311 7.8
2019-Sep-17 22:00 311 7.8
2019-Sep-17 21:45 311 7.8
2019-Sep-17 21:31 311 8.3
2019-Sep-17 21:16 311 8.3
2019-Sep-17 21:02 311 8.3
2019-Sep-17 20:46 311 8.3
2019-Sep-17 20:32 311 8.9
2019-Sep-17 20:17 311 8.9
2019-Sep-17 20:01 311 9.4
2019-Sep-17 19:46 311 9.4
2019-Sep-17 19:31 311 10.0
2019-Sep-17 19:16 311 10.6
2019-Sep-17 19:01 311 11.1
2019-Sep-17 18:46 315 11.1
2019-Sep-17 18:31 315 11.7
2019-Sep-17 18:16 315 12.2
2019-Sep-17 18:01 336 12.8
2019-Sep-17 17:46 333 13.3
2019-Sep-17 17:30 290 13.9
2019-Sep-17 17:15 280 14.4
2019-Sep-17 17:01 159 15.0
2019-Sep-17 16:45 299 15.0
2019-Sep-17 16:30 283 0 gusting 4 14.4
2019-Sep-17 16:15 328 15.6
2019-Sep-17 16:01 347 0 gusting 4 15.6
2019-Sep-17 15:45 269 15.6
2019-Sep-17 15:30 307 16.1
2019-Sep-17 15:15 297 0 gusting 4 16.7
2019-Sep-17 15:00 221 1 gusting 4 16.7
2019-Sep-17 14:45 015 16.7
2019-Sep-17 14:30 311 16.7
2019-Sep-17 14:16 345 16.1
2019-Sep-17 14:01 063 15.6
2019-Sep-17 13:45 294 15.0
2019-Sep-17 13:30 326 16.1
2019-Sep-17 13:15 322 0 gusting 6 16.1
2019-Sep-17 13:00 281 0 gusting 5 16.7
2019-Sep-17 12:45 336 17.2
2019-Sep-17 12:30 295 1 gusting 4 16.7
2019-Sep-17 12:16 290 0 gusting 5 16.7
2019-Sep-17 12:00 004 15.6
2019-Sep-17 11:45 355 16.1
2019-Sep-17 11:30 311 0 gusting 4 15.6
2019-Sep-17 11:15 306 1 gusting 6 15.6
2019-Sep-17 11:00 337 0 gusting 4 15.6
2019-Sep-17 10:45 314 15.0
2019-Sep-17 10:32 302 14.4
2019-Sep-17 10:17 309 0 gusting 2 13.3
2019-Sep-17 10:01 316 12.8
2019-Sep-17 09:46 323 12.8
2019-Sep-17 09:31 316 12.8
2019-Sep-17 09:16 329 0 gusting 3 12.8
2019-Sep-17 09:01 334 13.3
2019-Sep-17 08:46 335 12.8
2019-Sep-17 08:31 329 12.8
2019-Sep-17 08:16 330 12.8
2019-Sep-17 08:01 330 12.2
2019-Sep-17 07:46 330 12.2
2019-Sep-17 07:31 329 12.2
2019-Sep-17 07:16 327 11.7
2019-Sep-17 07:01 328 11.1
2019-Sep-17 06:46 327 10.6
2019-Sep-17 06:30 347 10.6
2019-Sep-17 06:16 324 10.6
2019-Sep-17 06:01 319 10.6
2019-Sep-17 05:45 320 10.6
2019-Sep-17 05:31 323 10.0
2019-Sep-17 05:15 322 10.6
2019-Sep-17 05:00 319 10.6
2019-Sep-17 04:46 321 10.6
2019-Sep-17 04:31 323 10.6
2019-Sep-17 04:15 318 11.1
2019-Sep-17 04:00 304 11.1
2019-Sep-17 03:45 326 11.7
2019-Sep-17 03:30 300 11.7
2019-Sep-17 03:15 307 12.2
2019-Sep-17 03:00 311 12.2
2019-Sep-17 02:45 332 12.2
2019-Sep-17 02:30 304 12.2
2019-Sep-17 02:15 329 12.2
2019-Sep-17 02:00 315 12.2
2019-Sep-17 01:45 309 12.2
2019-Sep-17 01:30 326 12.2
2019-Sep-17 01:15 315 12.2
2019-Sep-17 01:00 295 12.2
2019-Sep-17 00:46 314 11.7
2019-Sep-17 00:31 312 11.7
2019-Sep-17 00:17 300 11.7
2019-Sep-17 00:02 307 11.7
2019-Sep-16 23:46 307 11.1
2019-Sep-16 23:31 302 11.1
2019-Sep-16 23:17 315 11.1
2019-Sep-16 23:02 311 11.1
2019-Sep-16 22:46 307 11.1
2019-Sep-16 22:31 314 10.6
2019-Sep-16 22:17 315 10.6
2019-Sep-16 22:02 311 10.0
2019-Sep-16 21:46 309 9.4
2019-Sep-16 21:32 311 10.0
2019-Sep-16 21:16 311 9.4
2019-Sep-16 21:01 311 10.0
2019-Sep-16 20:46 312 10.0
2019-Sep-16 20:31 307 10.0
2019-Sep-16 20:16 307 10.6
2019-Sep-16 20:00 304 10.6
2019-Sep-16 19:46 302 10.6
2019-Sep-16 19:31 300 11.1
2019-Sep-16 19:15 321 11.1
2019-Sep-16 19:00 334 11.1
2019-Sep-16 18:45 293 11.7
2019-Sep-16 18:30 311 12.2
2019-Sep-16 18:16 332 12.8
2019-Sep-16 18:01 309 12.8
2019-Sep-16 17:46 300 13.3
2019-Sep-16 17:30 325 13.9
2019-Sep-16 17:15 304 13.9
2019-Sep-16 17:00 332 15.0
2019-Sep-16 16:46 314 15.6
2019-Sep-16 16:31 307 15.0
2019-Sep-16 16:16 333 15.0
2019-Sep-16 16:00 297 15.6
2019-Sep-16 15:46 285 15.6
2019-Sep-16 15:30 311 0 gusting 4 16.1
2019-Sep-16 15:15 283 0 gusting 2 16.1
2019-Sep-16 15:00 304 0 gusting 6 16.7
2019-Sep-16 14:45 330 0 gusting 5 16.7
2019-Sep-16 14:30 307 0 gusting 5 16.1
2019-Sep-16 14:15 231 0 gusting 5 16.1
2019-Sep-16 14:00 252 15.6
2019-Sep-16 13:45 278 15.6
2019-Sep-16 13:30 335 1 gusting 5 16.1
2019-Sep-16 13:15 329 16.1
2019-Sep-16 13:00 259 0 gusting 4 16.1
2019-Sep-16 12:45 300 0 gusting 5 16.1
2019-Sep-16 12:30 332 0 gusting 3 16.1
2019-Sep-16 12:15 347 16.1
2019-Sep-16 12:00 308 16.1
2019-Sep-16 11:45 301 16.1
2019-Sep-16 11:32 327 15.6
2019-Sep-16 11:17 326 15.0
2019-Sep-16 11:02 075 15.0
2019-Sep-16 10:47 313 15.0
2019-Sep-16 10:31 323 15.0
2019-Sep-16 10:17 075 14.4
2019-Sep-16 10:01 316 13.9
2019-Sep-16 09:45 302 13.9
2019-Sep-16 09:31 317 13.3
2019-Sep-16 09:15 340 13.3
2019-Sep-16 09:00 315 13.3
2019-Sep-16 08:46 348 12.2
2019-Sep-16 08:31 033 12.2
2019-Sep-16 08:15 346 12.2
2019-Sep-16 08:00 357 12.2
2019-Sep-16 07:45 357 11.7
2019-Sep-16 07:31 357 11.7
2019-Sep-16 07:15 356 11.1
2019-Sep-16 07:01 354 11.1
2019-Sep-16 06:45 351 11.1
2019-Sep-16 06:30 350 11.1
2019-Sep-16 06:15 350 11.1
2019-Sep-16 06:01 349 11.1
2019-Sep-16 05:45 350 11.1
2019-Sep-16 05:30 350 11.1
2019-Sep-16 05:15 348 11.1
2019-Sep-16 05:00 348 11.1
2019-Sep-16 04:45 349 11.1
2019-Sep-16 04:30 347 11.1
2019-Sep-16 04:15 346 11.7
2019-Sep-16 04:00 022 11.7
2019-Sep-16 03:45 075 11.7
2019-Sep-16 03:30 075 11.7
2019-Sep-16 03:15 077 11.7
2019-Sep-16 03:00 043 11.7
2019-Sep-16 02:45 015 11.7
2019-Sep-16 02:30 013 11.7
2019-Sep-16 02:15 013 11.7
2019-Sep-16 02:00 013 11.7